Home > Weather > Murmansk > Past weeks

Flag for Russia Past Weather in Murmansk, Russia — Yesterday and Last 2 Weeks

Now
72 °F

Passing clouds.


Feels Like: 77 °F
Forecast: 65 / 85 °F
Wind: 6 mph from West

Location: Murmansk Airport

Current Time: Jul 2, 2016 at 10:36:54 AM

Latest Report: Jul 2, 2016 at 10:00 AM


Visibility: N/A

Pressure: 29.86 "Hg

Humidity: 47%

Dew Point: 50 °F

Location of MurmanskLocation

Past Weather in Murmansk — Graph

°F

Murmansk Temperature Yesterday

Maximum temperature yesterday: 81 °F (at 3:30 PM)
Minimum temperature yesterday: 54 °F (at 1:30 AM)
Average temperature yesterday: 67 °F

High & Low Weather Summary for the Past Weeks

 TemperatureHumidityPressure
High81 °F (Jul 1, 3:30 PM)94% (Jun 19, 1:00 AM)30.12 "Hg (Jun 19, 1:00 AM)
Low37 °F (Jun 27, 2:00 AM)23% (Jun 17, 11:30 AM)29.50 "Hg (Jun 19, 9:00 AM)
Average58 °F67%29.90 "Hg
* Reported Jun 17 9:00 AM — Jul 2 9:00 AM, Murmansk, Weather by CustomWeather, © 2016

Note: Actual official high and low records may vary slightly from our data, if they occured in-between our weather recording intervals... More about our weather records

Advertising

Murmansk Weather History for the Previous 24 Hours

Scroll right to see more
 ConditionsComfort  
Time TempWeatherWind HumidityBarometerVisibility
9:00 AM
Sat, Jul 2
68 °FPassing clouds.3 mph56%29.86 "HgN/A
8:30 AM66 °FSunny.6 mph60%29.86 "Hg10 mi
8:00 AM66 °FSunny.6 mph64%29.86 "Hg10 mi
7:00 AM66 °FSunny.3 mph64%29.86 "Hg10 mi
6:30 AM66 °FPassing clouds.3 mph68%29.86 "HgN/A
6:00 AM66 °FSunny.3 mph68%29.86 "Hg10 mi
5:30 AM64 °FSunny.3 mph78%29.86 "Hg10 mi
5:00 AM64 °FSunny.1 mph78%29.86 "Hg10 mi
4:00 AM63 °FScattered clouds.3 mph83%29.86 "HgN/A
3:30 AM63 °FScattered clouds.3 mph83%29.86 "HgN/A
3:00 AM63 °FScattered clouds.1 mph83%29.86 "HgN/A
2:30 AM63 °FScattered clouds.1 mph83%29.86 "HgN/A
2:00 AM64 °FScattered clouds.3 mph78%29.86 "HgN/A
1:30 AM64 °FScattered clouds.1 mph78%29.86 "HgN/A
1:00 AM64 °FScattered clouds.3 mph78%29.86 "HgN/A
12:30 AM64 °FPartly sunny.6 mph73%29.86 "HgN/A
12:00 AM64 °FScattered clouds.3 mph73%29.83 "HgN/A
11:30 PM
Fri, Jul 1
64 °FScattered clouds.3 mph73%29.83 "HgN/A
11:00 PM63 °FScattered clouds.No wind83%29.86 "HgN/A
10:30 PM64 °FScattered clouds.1 mph78%29.86 "HgN/A
10:00 PM63 °FScattered clouds.1 mph83%29.86 "HgN/A
9:30 PM63 °FSprinkles. Scattered clouds.1 mph83%29.86 "HgN/A
9:00 PM64 °FScattered clouds.1 mph78%29.86 "HgN/A
8:30 PM64 °FSprinkles. Scattered clouds.3 mph78%29.86 "HgN/A
8:00 PM64 °FScattered clouds.1 mph73%29.86 "HgN/A
7:30 PM64 °FScattered clouds.6 mph73%29.86 "HgN/A
7:00 PM64 °FScattered clouds.6 mph73%29.86 "HgN/A
6:30 PM66 °FPartly sunny.10 mph68%29.86 "HgN/A
6:00 PM72 °FScattered clouds.10 mph53%29.86 "HgN/A
5:30 PM79 °FSunny.8 mph28%29.83 "Hg10 mi
5:00 PM81 °FPassing clouds.10 mph26%29.83 "HgN/A
4:30 PM79 °FPassing clouds.8 mph30%29.83 "HgN/A
4:00 PM79 °FPassing clouds.8 mph30%29.83 "HgN/A
3:30 PM81 °FScattered clouds.6 mph28%29.86 "HgN/A
3:00 PM77 °FScattered clouds.3 mph34%29.86 "HgN/A
2:30 PM73 °FScattered clouds.3 mph47%29.86 "HgN/A
2:00 PM75 °FScattered clouds.3 mph36%29.86 "HgN/A
1:30 PM75 °FScattered clouds.3 mph36%29.86 "HgN/A
1:00 PM75 °FScattered clouds.3 mph39%29.89 "HgN/A
12:00 PM75 °FPartly sunny.3 mph36%29.89 "HgN/A
11:30 AM75 °FPartly sunny.8 mph41%29.89 "HgN/A
11:00 AM75 °FPartly sunny.10 mph41%29.89 "HgN/A
10:30 AM75 °FScattered clouds.8 mph41%29.89 "HgN/A
10:00 AM73 °FScattered clouds.6 mph47%29.92 "HgN/A
Weather by CustomWeather, © 2016

See weather overviewHow to use our weather pages